�N����,����,�~����,�C��,���x,�C��,����,���ϕ���,�ő�u�ԕ���,�ő厞����,���˗�,�I�_���x,�n�����x,�ő啗���N��,DTYPE
"20/05/27","00:10",0.0,17.0,94.2,1001.9,297.9,1.1,1.9,328.1,0.00,16.1,19.8,"00:00:08",1
"20/05/27","00:20",0.0,17.0,94.3,1001.7,290.4,1.0,1.7,319.4,0.00,16.1,20.0,"00:19:04",1
"20/05/27","00:30",0.0,17.0,94.3,1001.9,293.5,0.8,1.3,334.5,0.00,16.1,19.9,"00:23:20",1
"20/05/27","00:40",0.0,17.0,94.4,1001.7,284.5,0.8,1.1,264.8,0.00,16.1,19.9,"00:38:48",1
"20/05/27","00:50",0.0,16.9,94.4,1001.7,285.8,0.8,1.4,266.3,0.00,16.0,19.8,"00:40:24",1
"20/05/27","01:00",0.0,16.8,94.5,1001.7,293.7,0.8,1.4,327.1,0.00,16.0,19.9,"00:58:16",1
"20/05/27","01:10",0.0,16.9,94.5,1001.7,262.9,0.6,1.0,290.4,0.00,16.1,19.8,"01:00:40",1
"20/05/27","01:20",0.0,16.9,94.5,1001.9,294.1,1.0,1.2,317.2,0.00,16.1,19.9,"01:14:24",1
"20/05/27","01:30",0.0,16.9,94.6,1001.5,307.1,1.0,1.3,313.6,0.00,16.1,19.7,"01:26:08",1
"20/05/27","01:40",0.0,16.9,94.6,1001.7,306.2,1.0,1.4,316.2,0.00,16.1,19.8,"01:36:24",1
"20/05/27","01:50",0.0,16.9,94.6,1001.7,272.8,0.6,0.9,308.5,0.00,16.1,19.8,"01:41:04",1
"20/05/27","02:00",0.0,16.9,94.7,1001.5,294.5,0.8,1.2,308.5,0.00,16.1,19.7,"01:53:44",1
"20/05/27","02:10",0.0,16.9,94.7,1001.5,295.7,1.0,1.3,314.2,0.00,16.1,19.7,"02:09:52",1
"20/05/27","02:20",0.0,17.0,94.7,1001.7,301.2,1.1,1.6,320.7,0.00,16.2,19.7,"02:12:32",1
"20/05/27","02:30",0.0,16.9,94.8,1001.2,283.4,0.7,1.2,271.7,0.00,16.1,19.8,"02:21:04",1
"20/05/27","02:40",0.0,16.9,94.9,1001.5,291.9,0.8,1.2,305.1,0.00,16.1,19.8,"02:33:44",1
"20/05/27","02:50",0.0,16.8,94.9,1001.2,273.5,1.0,1.3,269.7,0.00,16.0,19.9,"02:44:56",1
"20/05/27","03:00",0.0,16.8,94.9,1001.2,289.9,0.8,1.2,315.6,0.00,16.0,19.6,"02:59:12",1
"20/05/27","03:10",0.0,16.9,95.0,1001.5,302.1,0.8,1.7,318.7,0.00,16.1,19.5,"03:09:36",1
"20/05/27","03:20",0.0,16.9,95.0,1001.7,300.5,0.7,1.3,332.1,0.00,16.1,19.8,"03:11:44",1
"20/05/27","03:30",0.0,17.0,95.0,1001.2,309.6,0.8,1.3,332.5,0.00,16.2,19.5,"03:21:44",1
"20/05/27","03:40",0.0,17.0,95.0,1001.2,319.7,1.0,1.3,318.2,0.00,16.2,19.6,"03:31:28",1
"20/05/27","03:50",0.0,17.0,95.0,1001.2,275.4,0.7,0.9,297.0,0.00,16.2,19.7,"03:43:28",1
"20/05/27","04:00",0.0,16.9,95.1,1001.2,275.8,0.8,1.0,274.8,0.00,16.2,19.5,"03:50:32",1
"20/05/27","04:10",0.0,16.9,95.2,1001.2,272.4,0.7,1.1,270.8,0.00,16.2,19.7,"04:08:16",1
"20/05/27","04:20",0.0,16.9,95.2,1001.5,294.0,0.8,1.2,300.2,0.00,16.2,19.7,"04:11:44",1
"20/05/27","04:30",0.0,16.9,95.2,1001.2,289.2,0.7,1.1,298.0,0.00,16.2,19.4,"04:24:00",1
"20/05/27","04:40",0.0,16.9,95.3,1001.5,292.2,0.8,1.2,337.2,0.00,16.2,19.7,"04:38:00",1
"20/05/27","04:50",0.0,17.0,95.3,1001.0,283.3,0.8,1.1,313.1,0.00,16.3,19.7,"04:41:36",1
"20/05/27","05:00",0.0,17.0,95.3,1001.5,292.2,1.0,1.2,315.8,0.00,16.3,19.4,"04:52:00",1
"20/05/27","05:10",0.0,17.0,95.3,1001.2,294.6,0.7,1.2,309.1,0.00,16.3,19.5,"05:08:56",1
"20/05/27","05:20",0.0,17.1,95.4,1001.5,303.6,0.8,1.1,334.2,0.00,16.4,19.7,"05:16:16",1
"20/05/27","05:30",0.0,17.2,95.4,1001.5,295.1,0.8,1.3,329.1,0.00,16.5,19.5,"05:21:44",1
"20/05/27","05:40",0.0,17.3,95.4,1001.7,247.8,0.3,1.0,238.6,0.00,16.6,19.7,"05:38:48",1
"20/05/27","05:50",0.0,17.3,95.4,1001.5,248.7,0.5,1.1,248.0,0.00,16.6,19.5,"05:48:00",1
"20/05/27","06:00",0.0,17.5,95.4,1001.5,291.5,0.7,1.1,328.2,0.00,16.8,19.4,"05:52:16",1
"20/05/27","06:10",0.0,17.5,95.4,1001.5,272.3,0.8,1.2,265.3,0.02,16.8,19.5,"06:06:48",1
"20/05/27","06:20",0.0,17.7,95.5,1001.7,300.9,1.0,1.7,328.3,0.03,17.0,19.7,"06:16:08",1
"20/05/27","06:30",0.0,17.8,95.5,1001.2,316.8,0.7,1.1,335.4,0.04,17.1,19.4,"06:23:44",1
"20/05/27","06:40",0.0,17.9,95.5,1001.7,325.7,0.7,1.3,333.8,0.03,17.2,19.7,"06:39:28",1
"20/05/27","06:50",0.0,18.0,95.5,1001.5,334.1,0.5,1.2,327.4,0.03,17.3,19.7,"06:40:32",1
"20/05/27","07:00",0.0,18.1,95.5,1001.2,306.3,0.5,1.0,299.8,0.04,17.4,19.8,"06:58:24",1
"20/05/27","07:10",0.0,18.3,95.4,1001.5,250.1,0.3,0.8,270.8,0.06,17.6,19.8,"07:00:32",1
"20/05/27","07:20",0.0,18.6,95.4,1001.2,300.9,0.5,0.9,305.8,0.10,17.9,19.7,"07:11:12",1
"20/05/27","07:30",0.0,19.0,95.4,1001.2,305.8,0.8,1.6,318.6,0.11,18.3,19.9,"07:22:24",1
"20/05/27","07:40",0.0,19.3,95.2,1001.5,313.7,1.0,1.9,310.2,0.11,18.6,20.0,"07:39:36",1
"20/05/27","07:50",0.0,19.4,95.2,1001.5,332.0,0.8,1.8,323.5,0.11,18.7,20.1,"07:40:08",1
"20/05/27","08:00",0.0,19.4,95.2,1001.5,326.1,0.8,1.7,336.2,0.08,18.7,20.0,"07:52:48",1
"20/05/27","08:10",0.0,19.3,94.8,1001.5,83.8,0.5,1.2,120.7,0.08,18.5,20.2,"08:09:36",1
"20/05/27","08:20",0.0,19.1,94.9,1001.5,27.2,0.6,1.8,353.8,0.07,18.3,20.3,"08:18:08",1
"20/05/27","08:30",0.0,19.5,94.8,1001.5,327.2,0.8,1.8,338.8,0.08,18.7,20.5,"08:21:36",1
"20/05/27","08:40",0.0,19.6,94.7,1001.5,324.7,1.1,1.7,335.4,0.11,18.8,20.4,"08:31:52",1
"20/05/27","08:50",0.0,19.6,94.2,1001.2,345.5,0.6,1.3,336.2,0.14,18.7,20.5,"08:44:48",1
"20/05/27","09:00",0.0,19.7,93.8,1001.5,329.0,0.8,1.7,326.1,0.12,18.7,20.4,"08:54:40",1
"20/05/27","09:10",0.0,19.8,93.2,1001.5,309.5,1.1,2.0,312.1,0.12,18.7,20.6,"09:07:04",1
"20/05/27","09:20",0.0,20.1,92.7,1001.5,292.5,1.2,2.5,326.2,0.14,18.9,20.5,"09:13:44",1
"20/05/27","09:30",0.0,20.4,91.5,1001.5,299.6,1.3,2.9,330.9,0.28,19.0,20.5,"09:25:20",1
"20/05/27","09:40",0.0,21.4,89.1,1001.2,284.5,1.2,2.2,236.5,0.45,19.6,20.7,"09:34:16",1
"20/05/27","09:50",0.0,21.9,84.7,1001.2,317.6,1.2,3.1,343.8,0.29,19.2,21.1,"09:41:52",1
"20/05/27","10:00",0.0,22.6,79.2,1000.8,260.2,1.5,4.0,259.5,0.43,18.9,21.2,"09:58:00",1
"20/05/27","10:10",0.0,23.1,76.0,1000.3,225.9,1.6,4.1,207.9,0.51,18.7,21.5,"10:04:32",1
"20/05/27","10:20",0.0,23.6,73.8,1000.8,226.5,2.2,5.4,218.4,0.54,18.7,21.7,"10:15:36",1
"20/05/27","10:30",0.0,23.8,71.0,1000.3,239.2,1.6,3.5,205.8,0.60,18.3,22.0,"10:20:48",1
"20/05/27","10:40",0.2,23.8,68.4,1000.0,235.7,2.2,5.0,226.8,0.60,17.7,22.3,"10:33:44",1
"20/05/27","10:50",0.0,24.5,67.0,1000.0,238.0,1.5,3.9,274.1,0.61,18.0,22.5,"10:45:52",1
"20/05/27","11:00",0.0,25.3,64.1,999.8,314.4,1.2,3.2,340.5,0.61,18.1,22.9,"10:53:52",1
"20/05/27","11:10",0.0,25.1,63.0,1000.0,225.3,1.7,4.9,217.8,0.58,17.6,23.0,"11:05:28",1
"20/05/27","11:20",0.0,25.3,61.4,999.8,228.0,1.6,3.7,227.6,0.65,17.4,23.6,"11:18:00",1
"20/05/27","11:30",0.0,25.4,59.9,999.3,261.3,1.8,4.5,20.9,0.62,17.1,23.7,"11:28:16",1
"20/05/27","11:40",0.0,25.3,59.4,999.3,315.0,2.0,4.1,5.3,0.63,16.9,23.9,"11:33:52",1
"20/05/27","11:50",0.0,25.6,57.1,999.1,237.1,1.8,4.4,231.1,0.62,16.5,24.1,"11:49:36",1
"20/05/27","12:00",0.0,26.1,58.5,998.9,241.6,2.1,4.2,249.7,0.63,17.4,24.5,"11:50:16",1
"20/05/27","12:10",0.0,25.9,56.0,998.6,266.6,1.8,4.7,337.0,0.64,16.5,24.5,"12:01:44",1
"20/05/27","12:20",0.0,26.3,56.3,998.4,250.1,1.8,5.6,231.5,0.62,17.0,24.9,"12:15:44",1
"20/05/27","12:30",0.0,26.2,56.0,998.2,239.9,2.6,6.8,226.9,0.66,16.8,25.1,"12:24:48",1
"20/05/27","12:40",0.0,26.7,54.3,997.9,269.9,1.5,3.4,341.2,0.48,16.8,24.9,"12:31:36",1
"20/05/27","12:50",0.0,26.4,54.8,997.9,240.5,2.1,4.7,259.0,0.54,16.6,25.2,"12:46:00",1
"20/05/27","13:00",0.0,26.6,53.3,997.7,238.9,2.1,5.2,219.6,0.66,16.4,25.3,"12:53:52",1
"20/05/27","13:10",0.0,26.9,52.6,997.4,225.9,2.0,4.3,191.2,0.59,16.4,25.2,"13:02:00",1
"20/05/27","13:20",0.0,26.9,50.4,997.9,233.7,2.1,5.4,203.8,0.47,15.8,25.1,"13:18:00",1
"20/05/27","13:30",0.0,26.7,51.7,997.9,241.7,2.0,4.3,199.2,0.44,16.0,24.8,"13:29:36",1
"20/05/27","13:40",0.0,26.3,52.9,997.4,235.8,2.6,5.9,226.2,0.32,16.0,25.0,"13:31:04",1
"20/05/27","13:50",0.0,27.1,51.0,997.7,248.2,1.7,4.4,236.1,0.52,16.1,24.9,"13:43:28",1
"20/05/27","14:00",0.0,26.8,52.8,997.7,294.6,1.7,3.3,342.8,0.31,16.4,24.8,"13:54:48",1
"20/05/27","14:10",0.0,27.9,50.3,997.4,281.5,1.5,3.6,338.2,0.57,16.7,24.9,"14:09:04",1
"20/05/27","14:20",0.0,26.6,51.1,997.4,263.2,1.6,3.4,232.4,0.16,15.7,24.8,"14:12:48",1
"20/05/27","14:30",0.0,26.2,54.2,997.2,319.2,1.6,3.5,320.0,0.18,16.3,24.8,"14:26:40",1
"20/05/27","14:40",0.0,26.8,53.2,996.7,289.9,1.5,3.3,350.0,0.42,16.5,24.8,"14:31:04",1
"20/05/27","14:50",0.0,27.2,52.8,997.2,323.0,1.7,4.0,355.2,0.36,16.8,25.0,"14:48:16",1
"20/05/27","15:00",0.0,25.9,56.5,997.2,348.3,2.1,4.3,349.4,0.18,16.6,25.0,"14:55:28",1
"20/05/27","15:10",0.0,25.4,57.7,997.4,6.0,1.2,3.3,4.6,0.11,16.5,24.8,"15:09:04",1
"20/05/27","15:20",0.0,24.9,60.5,997.4,341.6,2.8,5.5,328.9,0.11,16.8,24.7,"15:10:32",1
"20/05/27","15:30",0.0,25.1,60.6,997.4,351.2,1.7,3.7,3.7,0.17,17.0,24.8,"15:25:44",1
"20/05/27","15:40",0.0,25.5,57.3,997.7,357.2,1.6,3.6,350.3,0.15,16.5,24.7,"15:35:12",1
"20/05/27","15:50",0.0,25.3,58.5,997.7,344.5,1.6,3.1,336.7,0.08,16.6,24.6,"15:44:08",1
"20/05/27","16:00",0.0,25.2,59.6,997.7,320.1,1.5,2.7,347.9,0.08,16.8,24.7,"15:50:16",1
"20/05/27","16:10",0.0,25.1,59.1,997.9,293.3,0.6,1.8,324.1,0.05,16.6,24.6,"16:09:36",1
"20/05/27","16:20",0.0,24.8,59.0,997.9,340.2,1.5,3.5,302.9,0.03,16.3,24.5,"16:18:40",1
"20/05/27","16:30",0.0,24.1,61.6,998.2,348.3,3.1,7.4,335.3,0.05,16.3,24.4,"16:26:00",1
"20/05/27","16:40",0.0,23.8,62.0,998.4,343.6,3.5,6.4,335.4,0.09,16.1,24.2,"16:34:48",1
"20/05/27","16:50",0.0,24.7,60.7,998.4,351.5,3.0,6.3,348.9,0.18,16.6,24.2,"16:44:40",1
"20/05/27","17:00",0.0,24.5,60.3,998.2,351.2,1.5,3.9,339.2,0.08,16.3,24.2,"16:54:40",1
"20/05/27","17:10",0.0,24.4,59.8,998.4,3.3,1.6,3.2,351.3,0.08,16.1,24.2,"17:09:12",1
"20/05/27","17:20",0.0,24.2,61.0,998.4,0.1,1.7,3.3,30.5,0.06,16.2,24.1,"17:11:04",1
"20/05/27","17:30",0.0,23.8,61.4,998.4,348.9,1.7,3.9,330.9,0.06,16.0,23.9,"17:20:24",1
"20/05/27","17:40",0.0,23.6,61.6,998.9,351.2,2.0,3.9,338.9,0.05,15.8,23.9,"17:30:24",1
"20/05/27","17:50",0.0,22.9,62.8,998.9,346.9,2.2,5.9,327.2,0.03,15.5,23.7,"17:48:48",1
"20/05/27","18:00",0.0,22.3,64.4,999.3,355.3,2.7,6.0,338.2,0.02,15.3,23.7,"17:54:48",1
"20/05/27","18:10",0.0,21.9,65.7,999.3,3.4,2.7,5.0,35.9,0.01,15.2,23.5,"18:02:32",1
"20/05/27","18:20",0.0,21.7,66.6,999.8,358.2,2.7,5.6,26.9,0.01,15.3,23.5,"18:11:04",1
"20/05/27","18:30",0.0,21.3,67.3,999.6,358.7,2.5,5.7,347.5,0.01,15.0,23.2,"18:26:24",1
"20/05/27","18:40",0.0,21.0,68.0,999.8,3.9,2.7,6.0,356.5,0.00,14.9,23.2,"18:33:52",1
"20/05/27","18:50",0.0,20.6,68.6,1000.3,6.6,3.2,6.3,343.5,0.00,14.7,23.0,"18:45:44",1
"20/05/27","19:00",0.0,20.4,69.1,1000.5,7.7,2.5,5.5,338.5,0.00,14.6,22.9,"18:56:48",1
"20/05/27","19:10",0.0,20.2,69.5,1001.0,6.1,2.1,4.2,353.5,0.00,14.5,22.6,"19:07:28",1
"20/05/27","19:20",0.0,19.9,69.9,1001.0,4.8,2.2,4.2,348.8,0.00,14.3,22.6,"19:16:00",1
"20/05/27","19:30",0.0,19.8,70.4,1001.2,2.5,2.2,4.4,37.3,0.00,14.3,22.4,"19:22:16",1
"20/05/27","19:40",0.0,19.5,70.8,1001.5,352.1,2.1,4.7,342.2,0.00,14.1,22.5,"19:39:52",1
"20/05/27","19:50",0.0,19.3,71.1,1001.0,324.5,2.3,5.4,334.9,0.00,14.0,22.3,"19:40:40",1
"20/05/27","20:00",0.0,19.2,71.5,1001.5,339.1,1.8,4.1,327.8,0.00,14.0,22.0,"19:50:24",1
"20/05/27","20:10",0.0,19.1,71.7,1001.5,9.5,1.6,4.0,349.2,0.00,13.9,21.8,"20:09:28",1
"20/05/27","20:20",0.0,18.9,71.8,1001.9,346.7,2.0,4.7,341.2,0.00,13.7,21.9,"20:10:08",1
"20/05/27","20:30",0.0,18.8,72.1,1001.9,0.0,2.1,4.4,336.0,0.00,13.7,21.7,"20:21:04",1
"20/05/27","20:40",0.0,18.7,72.2,1001.7,358.6,2.2,4.3,350.9,0.00,13.6,21.7,"20:39:44",1
"20/05/27","20:50",0.0,18.5,72.2,1001.9,2.7,2.1,4.1,2.9,0.00,13.4,21.7,"20:48:16",1
"20/05/27","21:00",0.0,18.5,72.2,1002.2,14.1,2.1,3.9,34.1,0.00,13.4,21.6,"20:53:28",1
"20/05/27","21:10",0.0,18.5,71.9,1001.9,3.7,2.3,4.4,336.4,0.00,13.4,21.3,"21:07:12",1
"20/05/27","21:20",0.0,18.4,71.9,1002.6,355.1,2.3,4.7,23.0,0.00,13.3,21.1,"21:12:16",1
"20/05/27","21:30",0.0,18.3,72.1,1002.9,357.0,2.2,4.4,333.8,0.00,13.2,21.4,"21:23:20",1
"20/05/27","21:40",0.0,18.2,72.2,1002.6,1.1,2.0,3.6,0.3,0.00,13.2,21.1,"21:36:16",1
"20/05/27","21:50",0.0,18.1,72.1,1002.4,351.8,2.1,3.7,347.1,0.00,13.0,21.1,"21:46:40",1
"20/05/27","22:00",0.0,18.0,72.2,1002.6,351.4,2.1,4.9,343.7,0.00,13.0,20.9,"21:56:24",1
"20/05/27","22:10",0.0,18.0,72.1,1002.6,354.1,1.8,2.9,22.3,0.00,12.9,20.9,"22:01:52",1
"20/05/27","22:20",0.0,18.0,71.5,1002.4,358.9,2.0,4.2,21.2,0.00,12.8,20.9,"22:14:56",1
"20/05/27","22:30",0.0,17.9,70.8,1002.4,3.8,2.0,4.1,356.8,0.00,12.6,20.9,"22:22:48",1
"20/05/27","22:40",0.0,17.9,70.3,1002.4,357.2,2.0,3.7,38.4,0.00,12.5,20.8,"22:30:08",1
"20/05/27","22:50",0.0,17.8,70.7,1002.2,340.2,2.1,5.2,348.6,0.00,12.5,20.6,"22:48:56",1
"20/05/27","23:00",0.0,17.8,71.0,1002.2,2.0,2.1,4.3,12.9,0.00,12.5,20.5,"22:52:00",1
"20/05/27","23:10",0.0,17.6,71.0,1002.2,346.6,1.8,3.3,355.8,0.00,12.3,20.5,"23:05:44",1
"20/05/27","23:20",0.0,17.5,71.1,1002.2,343.9,1.7,4.2,339.5,0.00,12.2,20.2,"23:14:32",1
"20/05/27","23:30",0.0,17.5,71.7,1002.2,351.5,2.2,4.0,3.7,0.00,12.4,20.3,"23:26:08",1
"20/05/27","23:40",0.0,17.2,72.7,1002.2,354.2,1.6,3.5,324.1,0.00,12.3,20.2,"23:37:36",1
"20/05/27","23:50",0.0,17.1,73.4,1002.2,9.1,1.6,3.2,15.6,0.00,12.3,20.2,"23:49:36",1
"20/05/27","24:00",0.0,17.1,73.6,1001.9,354.5,2.0,3.9,342.3,0.00,12.4,20.0,"23:55:44",1
